sat.trackr.live / text

‹ back to catalog

STARLINK-36073

NORAD 66844 · 2025-280Z

PAYLOAD ACTIVE UNKNOWN

§ Identity

Operator
Country
US
Launch date
2025-12-02
Launch site
AFWTR
Launch vehicle
Mass (kg)
RCS (m²)

Purposes: comms

External: N2YO · Heavens-Above · Gunter

§ Orbital elements

Epoch: 2026-09-20T05:16:28.024320Z

Period
96.11 min
Inclination
70.0003°
Eccentricity
0.0003224
Mean motion
14.98328365 rev/d
Perigee alt
569.8 km
Apogee alt
574.3 km
Semi-major
6,950.2 km
B*
9.8282e-5
RAAN
204.0128°
Arg perigee
263.3767°
Mean anomaly
96.7025°
Rev number
4,518

§ Raw data

STARLINK-360731 66844U 25280Z   26263.21976880  .00001080  00000+0  98282-4 0  99962 66844  70.0003 204.0128 0003224 263.3767  96.7025 14.98328365 45188

JSON: /api/v1/satellites/66844 · /tle

For live sub-satellite position, see the globe view (requires WebGL).

§ Visibility from observer

Set your observer location to see the next 7 days of passes ≥ 10°. The values pass through the URL so the page stays shareable.

No JS? Fill the form by hand. The geolocation button needs JavaScript.